This is the latest recevied weather packets stored in our database for station/object KK7RJD. If no packets are shown the sender has not sent any weather packets the latest 10 day(s).
| Time | Temp. | Humidity | Pressure | Rain* | Wind** | Luminosity | Snow |
|---|---|---|---|---|---|---|---|
| 1777882547 | 12.22° C | 38% | 1008.6 hPa | 0 mm | - | 0 W/m² | - |
| 1777882242 | 12.22° C | 38% | 1008.6 hPa | 0 mm | - | 0 W/m² | - |
| 1777881939 | 11.67° C | 38% | 1008.6 hPa | 0 mm | - | 0 W/m² | - |
| 1777881636 | 12.22° C | 39% | 1008.8 hPa | 0 mm | - | 0 W/m² | - |
| 1777881332 | 12.22° C | 38% | 1008.6 hPa | 0 mm | - | 0 W/m² | - |
| 1777881030 | 12.22° C | 38% | 1008.8 hPa | 0 mm | - | 0 W/m² | - |
| 1777880728 | 12.78° C | 37% | 1008.5 hPa | 0 mm | - | 0 W/m² | - |
| 1777880425 | 12.78° C | 37% | 1008.5 hPa | 0 mm | - | 0 W/m² | - |
| 1777880124 | 12.78° C | 37% | 1008.5 hPa | 0 mm | - | 0 W/m² | - |
| 1777879822 | 12.78° C | 37% | 1008.7 hPa | 0 mm | - | 0 W/m² | - |
| 1777879519 | 12.78° C | 37% | 1008.6 hPa | 0 mm | - | 0 W/m² | - |
| 1777879215 | 12.78° C | 37% | 1008.6 hPa | 0 mm | - | 0 W/m² | - |
| 1777878912 | 12.78° C | 38% | 1008.9 hPa | 0 mm | - | 0 W/m² | - |
| 1777878610 | 12.22° C | 38% | 1008.6 hPa | 0 mm | - | 0 W/m² | - |
| 1777878307 | 11.67° C | 39% | 1008.9 hPa | 0 mm | - | 0 W/m² | - |
| 1777878002 | 11.67° C | 40% | 1008.8 hPa | 0 mm | - | 0 W/m² | - |
| 1777877699 | 11.67° C | 40% | 1008.7 hPa | 0 mm | - | 0 W/m² | - |
| 1777877396 | 11.67° C | 40% | 1008.7 hPa | 0 mm | - | 0 W/m² | - |
| 1777877094 | 11.67° C | 40% | 1008.7 hPa | 0 mm | - | 0 W/m² | - |
| 1777876791 | 11.67° C | 41% | 1008.7 hPa | 0 mm | - | 0 W/m² | - |
| 1777876488 | 11.11° C | 42% | 1008.8 hPa | 0 mm | - | 0 W/m² | - |
| 1777876184 | 10.56° C | 45% | 1008.7 hPa | 0 mm | - | 0 W/m² | - |
| 1777875881 | 10.56° C | 47% | 1008.8 hPa | 0 mm | - | 0 W/m² | - |
| 1777875577 | 10.56° C | 48% | 1008.7 hPa | 0 mm | - | 0 W/m² | - |
| 1777875274 | 10.56° C | 47% | 1008.7 hPa | 0 mm | - | 0 W/m² | - |
* Rain latest hour (hover to see other rain measurements)
** Current wind speed in m/s (hover to see current wind gust speed)